Starlink 30350

operational
NORAD ID: 57746 Int'l Des: 2023-131 Owner: SPXS Country: US Constellation: starlink
LEOCIRCULAR

Starlink 30350について

説明を読み込み中...

リアルタイム位置

3D地球を読み込み中...

次回通過

高度履歴

Altitude vs Time

uPlot chart will show altitude changes over time

軌道要素

1 57746U 23131Q 25353.13759576 -.00000088 00000-0 85150-5 0 9991
2 57746 43.0024 249.7650 0000926 273.5267 86.5470 15.02532164127803
Epoch: Dec 19, 2025 • Age: 22 hours

現在のステータス

高度 558.6 km
速度 7.58 km/s
衛星直下点 4.19°N, 40.65°W
打ち上げ日 Sep 1, 2023
運用期間 2.2 years
タイプ internet

技術仕様

分類 Payload
質量 730.00 kg
乾燥質量 700.00 kg
総質量 730.00 kg
長さ 0.30 m
直径 4.10 m
スパン 29.00 m
形状 Box + pan
製造者 SPXS
バスタイプ Starlink V2M
フェーズステータス In Orbit
所有者/国 SPXS/US

大規模コンステレーション

Loading constellations...